Погода в Парутино

Украина / Николаевская область     46°42′20″N   31°54′02″E
темп.,
°C
ветер,
м/с
пор.,
м/с
влажн.,
%
обл.,
%
осадки,
мм/ч
давл.,
гПа
погр.,
м
8 марта, пн
пн823:00+1юз6128044 0.0 1019289
02:00+1юз6128046 0.0 1017338
05:00+1юз488880 0.0 1015161
08:00+2зюз357573 0.0 1015225
11:00+5зюз45590 0.0 1015645
14:00+6зюз46520 0.0 10131073
17:00+5зюз4656100 0.0 1014771
20:00+3ссз3571100 0.0 1015149
9 марта, вт
вт923:00+1ссз587863 0.0 1016305
02:000ссз487367 0.0 1018394
05:00−1ссз486797 0.0 1019436
08:00−1ссз575673 0.0 1020723
11:00+2ссз56440 0.0 10211105
14:00+4сз45414 0.0 10221430
17:00+2ссз564761 0.0 10221216
20:000ссв366337 0.0 1024163
10 марта, ср
ср1023:00−1св23660 0.0 102590
02:00−2св34680 0.0 1026135
05:00−3всв467462 0.0 1026255
08:00−2всв565881 0.0 1026413
11:000всв4538100 0.0 1026901
14:00+2в5536100 0.0 10251009
17:00+1всв4641100 0.0 1024762
20:00−2всв6949100 0.0 1024366
11 марта, чт
чт1123:00−2всв5949100 0.0 1025328
02:00−2всв5851100 0.0 1025375
05:00−3всв5856100 0.0 1025375
08:00−1всв684693 0.0 1026666
11:00+2в563772 0.0 10271138
14:00+3в453368 0.0 10261212
17:00+2в45390 0.0 1026987
20:00−1в47530 0.0 1027170
12 марта, пт
пт1223:00−2вюв48560 0.0 1028265
02:00−2юв34620 0.0 1028127
05:00−3юв58620 0.0 1028276
08:00−2юв685043 0.0 1029451
11:00+1ююв783992 0.0 1028935
14:00+2ююв8104661 0.0 1027885
17:00+2ююв8114970 0.0 1025773
20:00+1ююв7118684 0.1 1025505